| time (UTC) | temp C | wind direction | speed KPH | gust KPH | rain 1hr cm | rain 24hr cm | rain mn cm | humidity % | barometer mb |
| 20260504050006 | 18 | 259 | 0.0 | 6.4 | 0.00 | 0.00 | 0.00 | 40 | 1019.2 |
| 20260504040006 | 18 | 259 | 0.0 | 6.4 | 0.00 | 0.00 | 0.00 | 40 | 1019.2 |
| 20260504030005 | 18 | 259 | 0.0 | 6.4 | 0.00 | 0.00 | 0.00 | 40 | 1019.2 |
| 20260504020006 | 18 | 259 | 0.0 | 6.4 | 0.00 | 0.00 | 0.00 | 40 | 1019.2 |
| 20260504010005 | 18 | 259 | 0.0 | 6.4 | 0.00 | 0.00 | 0.00 | 40 | 1019.2 |
| 20260504000005 | 18 | 259 | 0.0 | 6.4 | 0.00 | 0.00 | 0.00 | 40 | 1019.2 |
| 20260503230006 | 18 | 259 | 0.0 | 6.4 | 0.00 | 0.00 | 0.00 | 40 | 1019.2 |
| 20260503220005 | 18 | 259 | 0.0 | 6.4 | 0.00 | 0.00 | 0.00 | 40 | 1019.2 |
| 20260503210006 | 18 | 259 | 0.0 | 6.4 | 0.00 | 0.00 | 0.00 | 40 | 1019.2 |
| 20260503200005 | 18 | 259 | 0.0 | 6.4 | 0.00 | 0.00 | 0.00 | 40 | 1019.2 |
| 20260503190006 | 18 | 259 | 0.0 | 6.4 | 0.00 | 0.00 | 0.00 | 40 | 1019.2 |
| 20260503185017 | 18 | 259 | 1.6 | 6.4 | 0.00 | 0.00 | 0.00 | 40 | 1019.8 |
| 20260503184018 | 18 | 252 | 1.6 | 6.4 | 0.00 | 0.00 | 0.00 | 43 | 1019.8 |
| 20260503183518 | 18 | 343 | 3.2 | 6.4 | 0.00 | 0.00 | 0.00 | 42 | 1019.8 |
| 20260503182558 | 18 | 34 | 3.2 | 9.7 | 0.00 | 0.00 | 0.00 | 45 | 1019.8 |
| 20260503181518 | 18 | 359 | 1.6 | 6.4 | 0.00 | 0.00 | 0.00 | 47 | 1020.0 |
| 20260503180518 | 18 | 49 | 1.6 | 8.0 | 0.00 | 0.00 | 0.00 | 47 | 1020.1 |
| 20260503180005 | 17 | 263 | 0.0 | 8.0 | 0.00 | 0.00 | 0.00 | 49 | 1019.7 |
| 20260503175519 | 17 | 263 | 3.2 | 8.0 | 0.00 | 0.00 | 0.00 | 49 | 1020.2 |
| 20260503174516 | 17 | 84 | 1.6 | 8.0 | 0.00 | 0.00 | 0.00 | 48 | 1020.3 |
| 20260503173516 | 17 | 44 | 1.6 | 6.4 | 0.00 | 0.00 | 0.00 | 49 | 1020.5 |
| 20260503172538 | 17 | 222 | 3.2 | 8.0 | 0.00 | 0.00 | 0.00 | 50 | 1020.7 |
| 20260503171536 | 17 | 47 | 1.6 | 4.8 | 0.00 | 0.00 | 0.00 | 49 | 1020.9 |
| 20260503170516 | 16 | 32 | 1.6 | 6.4 | 0.00 | 0.00 | 0.00 | 51 | 1021.0 |
| 20260503150538 | 13 | 54 | 3.2 | 8.0 | 0.00 | 0.00 | 0.00 | 56 | 1021.9 |
| 20260503130517 | 8 | 228 | 0.0 | 3.2 | 0.00 | 0.00 | 0.00 | 81 | 1021.6 |
| 20260503110516 | 5 | 192 | 0.0 | 1.6 | 0.00 | 0.00 | 0.00 | 92 | 1020.8 |